Regional Weather Roundup
Issued by NWS Cleveland, OH

Home | Current Version | Previous Version | Text Only | Print | Product List | Glossary Off
Versions: 1 2 3 4 5 6 7 8 9 10 11 12 13 14 15 16 17 18 19 20 21 22 23 24 25 26 27 28 29 30 31 32 33 34 35 36 37 38 39 40 41 42 43 44 45 46 47 48 49 50

000
ASUS41 KCLE 281902
RWRCLE
OHIO REGIONAL WEATHER ROUNDUP
NATIONAL WEATHER SERVICE CLEVELAND, OH
300 PM EDT SAT MAY 28 2016

NOTE: "FAIR" INDICATES FEW OR NO CLOUDS BELOW 12,000 FEET WITH NO
SIGNIFICANT WEATHER AND/OR OBSTRUCTIONS TO VISIBILITY.

OHZ001>008-015>018-024>027-034-035-043-044-282000-
   NORTHWEST OHIO

CITY           SKY/WX    TMP DP  RH WIND       PRES   REMARKS
DEFIANCE       CLOUDY    85  58  39 SW16G26   30.03F
FINDLAY        MOSUNNY   87  60  40 SW14G22   30.03F
TOLEDO EXPRESS SUNNY     88  56  33 SW10G22   30.01F
TOLEDO EXEC    CLOUDY    87  62  43 SW13      30.02F
LIMA           TSTM      72  68  87 SW23G32   30.09R FOG
$$

OHZ009>014-019>023-028>033-038-089-282000-
   NORTHEAST OHIO

CITY           SKY/WX    TMP DP  RH WIND       PRES   REMARKS
CLE-HOPKINS    MOSUNNY   87  66  49 S9        30.07F
CLE-LAKEFRONT  MOSUNNY   86  65  49 SW8       30.04F
CUY CO. ARPT   PTSUNNY   90  66  45 W12       30.07F HX  92
LORAIN-ELYRIA  PTSUNNY   86  64  47 W8        30.06F
ASHTABULA      MOSUNNY   78  68  71 NE8       30.11R
AKRON-CANTON   MOSUNNY   86  66  51 SW12      30.09F
WOOSTER        MOSUNNY   87  65  47 SW10      30.09F
MANSFIELD      MOSUNNY   86  65  49 S12       30.08F
YOUNGSTOWN     CLOUDY    83  68  60 E12       30.10F
$$

OHZ042-051>053-060>062-070>072-077>081-282000-
  SOUTHWEST OHIO

CITY           SKY/WX    TMP DP  RH WIND       PRES   REMARKS
CINC-COVINGTON NOT AVBL
CINC-LUNKEN    MOSUNNY   82  68  62 SW12      30.07F
HAMILTON       LGT RAIN  84  69  60 VRB6      30.08F
DAYTON         CLOUDY    74  69  85 S6        30.11F
WRIGHT-PAT AFB CLOUDY    78  70  75 CALM      30.09F
DAYTON GENERAL CLOUDY    81  64  56 SW12      30.09F
WILMINGTON     SUNNY     82  66  58 SW9       30.10F
$$

OHZ036-037-039>041-045>050-054>059-063>069-073>076-082>088-282000-
  CENTRAL AND SOUTHEAST OHIO

CITY           SKY/WX    TMP DP  RH WIND       PRES   REMARKS
COLUMBUS       CLOUDY    76  64  66 NW6       30.07F
OSU AIRPORT    PTSUNNY   83  66  56 W5        30.08S
BOLTON FIELD   CLOUDY    81  66  61 CALM      30.08F
RICKENBACK AFB NOT AVBL
NEWARK         SUNNY     88  65  46 S8        30.07F HX  90
MARION         MOSUNNY   85  62  46 SW12      30.07F
LANCASTER      SUNNY     84  67  56 S10       30.09F
ZANESVILLE     SUNNY     87  66  49 VRB3G16   30.09F
NEW PHILLY     MOSUNNY   88  63  43 SW8       30.09F
$$



USA.gov is the U.S. government's official web portal to all federal, state and local government web resources and services.